STARLINK-37342, 68752

Orbit data source: Space-Track

STARLINK-37342, 68752 is a payload satellite owned by SpaceX/Seattle (US) in SSO that was launched on Wed, 15 Apr 2026 UTC via an FALCON 9 launch vehicle from the Air Force Western Test Range (AFWTR). Payload-class satellites include a variety of spacecraft equipped with specific instruments for various scientific and technological missions. These include communications satellites like Starlink; space stations such as the ISS; scientific satellites like the Hubble; Earth observation satellites from companies like Planet Labs, Umbra, and HawkEye 360; GPS; miniature CubeSats for education and research; and military/defense satellites.

Loading next visibility...
Identifier
68752, 2026-082AA
Orbit
SSO
Country
Flag of USUS
Related business
Manufacturer
SpaceX/Seattle
Mission
Operational spacecraft
Bus & Motor
STARLINK V2MO, Unknown motor
Mass
575 kg wet, ~530 kg dry
Launch date (UTC)
2026-04-15 (2 months ago)
Launch vehicle
FALCON 9
Launch site
Air Force Western Test Range (AFWTR)
Object type
Payload
Rocket body
Debris
Shape & HBR
Unknown shape, 14.5 m
Radar Cross Section
Large (>1 m²)

Expand to show TLE details & history
Last TLE update: 15 hours ago

TLE from 15 hours ago
0 STARLINK-37342
1 68752U 26082AA  26171.20168098  .00013848  00000-0  43036-3 0  9990
2 68752  97.2859  34.7045 0001124 128.5231 231.6113 15.33454146 10164
Epoch: 2026-06-20T04:50Z
TLE epoch observation values (Epoch: 2026-06-20T04:50:25.236Z)
Latitude
-0°
Longitude
53.67965°
Altitude
469.106 km
Speed
7.631 km/s
True Right ascension
02h 18m 49s
True Declination
0° 00' 00"
Sunlit
Object was in daylight at epoch
Visualization orbit readout
Latitude
Unknown
Longitude
Unknown
Altitude
Unknown
Speed
Unknown
Apparent Right ascension
Unknown
Apparent Declination
Unknown
Sunlit
N/A
Visualization observer readout
Local Sidereal Time
07:12:01
Azimuth
Unknown
Elevation
Unknown
Doppler factor
Unknown
Orbital elements
Apogee altitude
463.228 km
Perigee altitude
461.69 km
Semi-major axis
6,840.596 km
Eccentricity
0.00011
Inclination
97.2859°
RAAN
34.7045°
Arg. of periapsis
128.5231°
True anomaly
231.60121°
Mean anomaly
231.6113°
Eccentric anomaly
231.60625°
Mean motion
3.83621 °/min
Orbital period
93.84 mins
BSTAR
0.00043036
Loading maneuver chart data...
Computing Atmospheric mass density...
Loading historical data...
Loading historical data...
Loading historical data...
Loading historical data...
Loading historical data...
Loading historical data...
Loading historical data...

Documentation

Showing up to 5 results
|